FENGYUN 1C DEB

Satellite information

Favourite Embed

Satellite Type and Status

DEBRISIN ORBIT

Key statistics

Satellite FENGYUN 1C DEB at a glance.

Uptime

9618

Days in orbit

Revolutions

≈ 14.2

Per day

Orbit

SSO

Sun Synchronous Orbit

Inclination

98.6

Latest

Satellite identification and parameters

Extended collection of information and parameters for FENGYUN 1C DEB.

Object identification

Identified? True

Debris? True

Object name: FENGYUN 1C DEB

International designator: 1999-025WT

Object number (NORAD): 30234

Object ID (CCSDS): 30234

Country: PEOPLES REPUBLIC OF CHINA (PRC)

Current information (Y/N): Y

RCS size: SMALL

Orbital parameters

Period: 101.646 minutes

Inclination: 98.6394 deg

SMA: 7214.729 km

Apoapsis: 884.294 km

Periapsis: 788.894 km

RAAN: 263.378 deg

Eccentricy: 0.00661144

Argument of periapsis: 354.4918 deg

Mean anomaly: 183.8834 deg

Mean motion: 14.16683133 rev/day

Mean motion (dot): 0.0000098 rev/day2

B* drag term: 0.00050114726 1/REarth

Two-line elements (TLE)

Creation date: Sept. 7, 2025, 3:09 a.m.

Reference frame: TEME

Reference center: EARTH

Epoch: Sept. 6, 2025, 6:49 p.m. UTC

TLE line 0: 0 FENGYUN 1C DEB

TLE line 1: 1 30234U 99025WT 25249.78407083 .00000980 00000-0 50115-3 0 9998

TLE line 2: 2 30234 98.6394 263.3780 0066114 354.4918 183.8834 14.16683133960831

Live tracking on map

Real-time ground track for satellite FENGYUN 1C DEB.

In-orbit conjunctions

A list of the most updated potential collisions computed for object FENGYUN 1C DEB.

Target Orbit TCA Probability of collision Miss distance Type
COSMOS 1603 DEB LEO 2024-11-11 00:47:32 0.0002436076 392.0 (m) DEBRIS

Associated space launch

Chinese polar orbiting meteorological satellite

FENGYUN 1C DEB was lifted into orbit during the mission ‘Long March 4B | Feng Yun 1C’, on board a Long March 4B space rocket.

The launch took place on May 10, 1999, 1:33 a.m. from Launch Complex 7.

For more information about the launch, click the button.

Launch to space Long March 4B | Feng Yun 1C
Long March 4B | Feng Yun 1C

Agency: N/A

Status: Launch Successful

Launch date: May 10, 1999, 1:33 a.m. UTC

Rocket: Long March 4B

Launch pad: Launch Complex 7

Location: Taiyuan Satellite Launch Center, People's Republic of China

...

Latest news about this satellite

There are no fresh news available about this satellite. Check back as we update our databases every day.


Newsletter sign-up

Weekly statistics, charts and insights to help you stay on top of the space industry.